Stündliche Wetter Holodnyy Ples

Heute, 25 Juni, Freitag

Zeit Temperatur Niederschläge Wind Luftdruck Luftfeuchtigkeit
00:00 +24°C° 0 mm 3 m/S 742 mmHg 41%
01:00 +24°C° 0 mm 3 m/S 742 mmHg 41%
02:00 +22°C° 0 mm 3 m/S 742 mmHg 41%
03:00 +22°C° 0 mm 3 m/S 742 mmHg 41%
04:00 +22°C° 0 mm 3 m/S 742 mmHg 44%
05:00 +22°C° 0 mm 3 m/S 742 mmHg 48%
06:00 +23°C° 0 mm 2 m/S 741 mmHg 51%
07:00 +25°C° 0 mm 3 m/S 742 mmHg 47%
08:00 +27°C° 0 mm 3 m/S 742 mmHg 43%
09:00 +29°C° 0 mm 4 m/S 742 mmHg 39%
10:00 +32°C° 0 mm 4 m/S 742 mmHg 36%
11:00 +33°C° 0 mm 4 m/S 742 mmHg 33%
12:00 +34°C° 0 mm 4 m/S 742 mmHg 29%
13:00 +35°C° 0 mm 4 m/S 742 mmHg 28%
14:00 +35°C° 0 mm 4 m/S 741 mmHg 27%
15:00 +36°C° 0 mm 4 m/S 741 mmHg 26%
16:00 +35°C° 0 mm 3 m/S 741 mmHg 30%
17:00 +35°C° 0 mm 2 m/S 741 mmHg 34%
18:00 +34°C° 0 mm 2 m/S 741 mmHg 39%
19:00 +31°C° 0 mm 1 m/S 741 mmHg 38%
20:00 +29°C° 0 mm 1 m/S 740 mmHg 38%
21:00 +28°C° 0 mm 1 m/S 740 mmHg 38%
22:00 +27°C° 0.1 mm 1 m/S 740 mmHg 39%
23:00 +26°C° 0.1 mm 1 m/S 740 mmHg 40%

Morgen, 26 Juni, Samstag

Zeit Temperatur Niederschläge Wind Luftdruck Luftfeuchtigkeit
00:00 +25°C° 0.1 mm 2 m/S 740 mmHg 42%
01:00 +24°C° 0 mm 2 m/S 740 mmHg 45%
02:00 +23°C° 0 mm 2 m/S 739 mmHg 48%
03:00 +23°C° 0 mm 2 m/S 739 mmHg 51%
04:00 +23°C° 0 mm 2 m/S 739 mmHg 57%
05:00 +23°C° 0 mm 2 m/S 739 mmHg 62%
06:00 +23°C° 0 mm 2 m/S 739 mmHg 67%
07:00 +25°C° 0 mm 2 m/S 739 mmHg 60%
08:00 +27°C° 0 mm 3 m/S 739 mmHg 52%
09:00 +29°C° 0 mm 3 m/S 739 mmHg 45%
10:00 +31°C° 0 mm 3 m/S 739 mmHg 41%
11:00 +33°C° 0 mm 3 m/S 739 mmHg 37%
12:00 +35°C° 0 mm 3 m/S 740 mmHg 33%
13:00 +35°C° 0 mm 3 m/S 739 mmHg 33%
14:00 +35°C° 0 mm 3 m/S 739 mmHg 33%
15:00 +35°C° 0 mm 3 m/S 739 mmHg 33%
16:00 +34°C° 0 mm 3 m/S 739 mmHg 39%
17:00 +34°C° 0 mm 2 m/S 739 mmHg 45%
18:00 +32°C° 0 mm 1 m/S 738 mmHg 52%
19:00 +30°C° 0 mm 1 m/S 738 mmHg 53%
20:00 +29°C° 0 mm 1 m/S 738 mmHg 55%
21:00 +27°C° 0 mm 1 m/S 738 mmHg 56%
22:00 +26°C° 0 mm 1 m/S 738 mmHg 58%
23:00 +26°C° 0 mm 1 m/S 738 mmHg 60%

übermorgen, 27 Juni, Sonntag

Zeit Temperatur Niederschläge Wind Luftdruck Luftfeuchtigkeit
00:00 +25°C° 0 mm 1 m/S 738 mmHg 62%
01:00 +25°C° 0 mm 1 m/S 738 mmHg 62%
02:00 +24°C° 0 mm 1 m/S 738 mmHg 62%
03:00 +22°C° 0 mm 0 m/S 738 mmHg 62%
04:00 +25°C° 0 mm 1 m/S 738 mmHg 63%
05:00 +25°C° 0 mm 1 m/S 738 mmHg 64%
06:00 +25°C° 0 mm 1 m/S 738 mmHg 65%
07:00 +27°C° 0 mm 1 m/S 738 mmHg 61%
08:00 +28°C° 0 mm 2 m/S 739 mmHg 57%
09:00 +30°C° 0 mm 2 m/S 739 mmHg 53%
10:00 +31°C° 0 mm 2 m/S 739 mmHg 51%
11:00 +33°C° 0 mm 3 m/S 739 mmHg 49%
12:00 +34°C° 0 mm 3 m/S 739 mmHg 46%
13:00 +34°C° 0 mm 3 m/S 739 mmHg 46%
14:00 +35°C° 0 mm 4 m/S 739 mmHg 46%
15:00 +35°C° 0 mm 4 m/S 739 mmHg 45%
16:00 +34°C° 0 mm 4 m/S 739 mmHg 49%
17:00 +34°C° 0 mm 4 m/S 739 mmHg 53%
18:00 +33°C° 0 mm 4 m/S 739 mmHg 57%
19:00 +30°C° 0 mm 4 m/S 739 mmHg 63%
20:00 +28°C° 0 mm 4 m/S 739 mmHg 70%
21:00 +25°C° 0 mm 5 m/S 739 mmHg 76%
22:00 +25°C° 0 mm 4 m/S 740 mmHg 78%
23:00 +23°C° 0 mm 4 m/S 740 mmHg 81%

28 Juni, Montag

Zeit Temperatur Niederschläge Wind Luftdruck Luftfeuchtigkeit
00:00 +22°C° 0 mm 4 m/S 740 mmHg 83%
01:00 +22°C° 0 mm 3 m/S 740 mmHg 86%
02:00 +21°C° 0 mm 3 m/S 740 mmHg 89%
03:00 +21°C° 0 mm 2 m/S 739 mmHg 92%
04:00 +21°C° 0 mm 2 m/S 740 mmHg 91%
05:00 +22°C° 0 mm 3 m/S 740 mmHg 90%
06:00 +22°C° 0 mm 3 m/S 740 mmHg 89%
07:00 +24°C° 0 mm 3 m/S 740 mmHg 82%
08:00 +26°C° 0 mm 4 m/S 740 mmHg 74%
09:00 +27°C° 0 mm 4 m/S 741 mmHg 67%
10:00 +28°C° 0 mm 4 m/S 741 mmHg 63%
11:00 +30°C° 0 mm 4 m/S 741 mmHg 58%
12:00 +32°C° 0 mm 4 m/S 741 mmHg 54%
13:00 +32°C° 0 mm 4 m/S 740 mmHg 52%
14:00 +33°C° 0 mm 4 m/S 740 mmHg 51%
15:00 +33°C° 0 mm 5 m/S 740 mmHg 49%
16:00 +32°C° 0 mm 4 m/S 740 mmHg 53%
17:00 +32°C° 0 mm 4 m/S 740 mmHg 57%
18:00 +30°C° 0 mm 4 m/S 740 mmHg 60%
19:00 +28°C° 0 mm 4 m/S 740 mmHg 67%
20:00 +27°C° 0 mm 4 m/S 740 mmHg 73%
21:00 +25°C° 0 mm 4 m/S 740 mmHg 80%
22:00 +23°C° 0 mm 4 m/S 740 mmHg 82%
23:00 +22°C° 0 mm 3 m/S 740 mmHg 85%

29 Juni, Dienstag

Zeit Temperatur Niederschläge Wind Luftdruck Luftfeuchtigkeit
00:00 +22°C° 0 mm 3 m/S 739 mmHg 88%
01:00 +21°C° 0 mm 3 m/S 739 mmHg 90%
02:00 +21°C° 0 mm 3 m/S 739 mmHg 93%
03:00 +20°C° 0 mm 2 m/S 739 mmHg 95%
04:00 +21°C° 0 mm 3 m/S 739 mmHg 93%
05:00 +21°C° 0 mm 3 m/S 739 mmHg 90%
06:00 +21°C° 0 mm 4 m/S 740 mmHg 88%
07:00 +22°C° 0 mm 4 m/S 740 mmHg 82%
08:00 +23°C° 0 mm 4 m/S 740 mmHg 76%
09:00 +25°C° 0 mm 5 m/S 740 mmHg 70%
10:00 +26°C° 0 mm 4 m/S 741 mmHg 65%
11:00 +27°C° 0 mm 4 m/S 741 mmHg 60%
12:00 +28°C° 0 mm 4 m/S 741 mmHg 56%
13:00 +28°C° 0 mm 4 m/S 741 mmHg 52%
14:00 +29°C° 0 mm 4 m/S 741 mmHg 49%
15:00 +29°C° 0 mm 4 m/S 741 mmHg 46%
16:00 +28°C° 0 mm 4 m/S 741 mmHg 50%
17:00 +27°C° 0 mm 4 m/S 741 mmHg 54%
18:00 +26°C° 0 mm 3 m/S 741 mmHg 58%
19:00 +26°C° 0 mm 3 m/S 741 mmHg 59%
20:00 +25°C° 0 mm 2 m/S 741 mmHg 60%
21:00 +24°C° 0 mm 2 m/S 741 mmHg 61%
22:00 +24°C° 0 mm 2 m/S 741 mmHg 62%
23:00 +23°C° 0 mm 1 m/S 741 mmHg 63%

30 Juni, Mittwoch

Zeit Temperatur Niederschläge Wind Luftdruck Luftfeuchtigkeit
00:00 +23°C° 0 mm 1 m/S 741 mmHg 64%
01:00 +23°C° 0 mm 1 m/S 741 mmHg 65%
02:00 +23°C° 0 mm 1 m/S 741 mmHg 65%
03:00 +23°C° 0 mm 1 m/S 741 mmHg 65%
04:00 +22°C° 0.1 mm 1 m/S 741 mmHg 68%
05:00 +22°C° 0.1 mm 1 m/S 741 mmHg 71%
06:00 +21°C° 0.1 mm 2 m/S 742 mmHg 74%
07:00 +24°C° 0 mm 2 m/S 742 mmHg 66%
08:00 +25°C° 0 mm 2 m/S 742 mmHg 58%
09:00 +27°C° 0 mm 2 m/S 742 mmHg 49%
10:00 +27°C° 0 mm 3 m/S 742 mmHg 47%
11:00 +28°C° 0 mm 4 m/S 742 mmHg 44%
12:00 +29°C° 0 mm 5 m/S 742 mmHg 42%
13:00 +28°C° 0 mm 5 m/S 742 mmHg 44%
14:00 +28°C° 0 mm 4 m/S 741 mmHg 47%
15:00 +27°C° 0 mm 4 m/S 741 mmHg 50%
16:00 +27°C° 0 mm 4 m/S 741 mmHg 51%
17:00 +27°C° 0 mm 4 m/S 741 mmHg 52%
18:00 +27°C° 0 mm 3 m/S 741 mmHg 53%
19:00 +25°C° 0 mm 3 m/S 741 mmHg 58%
20:00 +24°C° 0 mm 3 m/S 741 mmHg 63%
21:00 +23°C° 0 mm 2 m/S 742 mmHg 69%
22:00 +21°C° 0 mm 2 m/S 742 mmHg 71%
23:00 +20°C° 0 mm 2 m/S 741 mmHg 74%
Mehr zeigen

Wir brauchen deine Erlaubnis

Meteoprog und unser Service Anbieter werden persönliche Daten aufbewahren, so wie Cookies, Geräte Bezeichnung oder ähnliche Technologien von deinem Gerät und Prozess, so wie Persönliche Daten Inhalte und Werbungen, genauso wie social Media und den Verkehr zu analysieren.

  • Aufbewahrung und/oder Zugang zu deiner Geräte Informationen.

    Cookies, Geräte Bezeichnung oder andere Informationen, können aufbewahrt oder Zugang zu deinem Gerät erhalten, für den Grund, der oben angegeben wird.

  • Personalisierte Werbung und Inhalte, Messungen, Einblick in das Publikum und Produkt Entwicklung.

    Werbungen und Inhalte können personalisiert werden, basierend auf ein Profil. Mehr Daten können besser personalisierte Werbungen und Inhalte hinzufügen. Werbung und Inhalte können gezeigt und gemessen werden. Einblicke über das Publikum, welche die Werbung gesehen haben und den Inhalt, können abgeleitet werden. So wie Daten können genutzt werden, um es zu verbessern oder die Benutzer Erfahrung zu verbessern das System und die Software.

Wenn du “Ich stimme zu” klickst, erlaubst du uns, die Cookies zu benutzen die Geräte Bezeichnung, den Web oder ähnliche Technologien zu benutzen. Deine Settings, können in deinem Gerät bei deinem Browser geändert werden.

Für den bestimmten Zweck, berechtigten Interessen beruhen darauf, mehr als auf den Inhalt. Du kannst mehr darüber in unseren Privaten und Cookie Politik lesen.